Sacramento International, CA

1:47 AM PST on December 17, 2017 (GMT -0800)
Sacramento International

Weather History for KSMF - July, 2013

Change the Weather History Date:

Tuesday, July 2, 2013

  Actual Average Record
Temperature  
Mean Temperature 86 °F -  
Max Temperature 105 °F 89 °F 108 °F (1950)
Min Temperature 71 °F 57 °F 52 °F (1956)
Cooling Degree Days 22    
Growing Degree Days 36 (Base 50)    
Moisture  
Dew Point 62 °F    
Average Humidity 48    
Maximum Humidity 82    
Minimum Humidity 25    
Precipitation  
Precipitation 0.00 in - - ()
Sea Level Pressure  
Sea Level Pressure 29.78 in    
Wind  
Wind Speed 9 mph (South)    
Max Wind Speed 18 mph    
Max Gust Speed 24 mph    
Visibility 10 miles    
Events      
Averages and records for this station are not official NWS values.
T = Trace of Precipitation, MM = Missing Value Source: NWS Daily Summary

Daily Weather History Graph

Daily Weather History Graph

Search for Another Location

Airport or City:

Trip Planner

Search our weather history database for the weather conditions in past years. The results will help you decide how hot, cold, wet, or windy it might be!

Date:

Astronomy

Jul. 02, 2013 Rise Set
Actual Time 5:45 AM PDT 8:34 PM PDT
Civil Twilight 5:14 AM PDT 9:06 PM PDT
Nautical Twilight 4:34 AM PDT 9:46 PM PDT
Astronomical Twilight 3:48 AM PDT 10:31 PM PDT
Moon 1:49 AM PDT (7/2) 3:55 PM PDT (7/2)
Length of Visible Light 15h 52m
Length of Day
14h 48m
Waning Crescent, 25% of the Moon is Illuminated
Jul 2
Waning Crescent
Jul 8
New
Jul 15
First Quarter
Jul 22
Full
Jul 29
Last Quarter

Hourly Weather History & Observations

Time (PDT) Temp. Heat Index Dew Point Humidity Pressure Visibility Wind Dir Wind Speed Gust Speed Precip Events Conditions
12:53 AM 82.0 °F 83.1 °F 63.0 °F 52% 29.77 in 7.0 mi SSW 4.6 mph - N/A   Clear
1:53 AM 80.1 °F 81.7 °F 64.0 °F 58% 29.76 in 8.0 mi SW 5.8 mph - N/A   Clear
2:53 AM 75.9 °F - 66.0 °F 71% 29.75 in 8.0 mi SSW 4.6 mph - N/A   Clear
3:53 AM 71.1 °F - 64.0 °F 78% 29.75 in 8.0 mi NNW 3.5 mph - N/A   Clear
4:53 AM 73.0 °F - 66.0 °F 79% 29.75 in 10.0 mi SW 3.5 mph - N/A   Clear
5:53 AM 73.9 °F - 68.0 °F 82% 29.76 in 10.0 mi SSW 5.8 mph - N/A   Clear
7:53 AM 78.1 °F - 64.9 °F 64% 29.78 in 10.0 mi SSW 4.6 mph - N/A   Clear
8:53 AM 84.9 °F 86.1 °F 64.0 °F 49% 29.80 in 10.0 mi SSE 8.1 mph - N/A   Partly Cloudy
9:53 AM 88.0 °F 88.4 °F 62.1 °F 42% 29.81 in 10.0 mi South 11.5 mph - N/A   Clear
10:53 AM 91.0 °F 91.5 °F 62.1 °F 38% 29.82 in 10.0 mi South 15.0 mph - N/A   Partly Cloudy
11:53 AM 93.9 °F 94.8 °F 62.1 °F 35% 29.81 in 10.0 mi South 12.7 mph - N/A   Mostly Cloudy
12:53 PM 99.0 °F 100.5 °F 62.1 °F 30% 29.80 in 10.0 mi South 13.8 mph - N/A   Partly Cloudy
1:53 PM 100.9 °F 102.7 °F 62.1 °F 28% 29.80 in 10.0 mi South 13.8 mph - N/A   Scattered Clouds
2:53 PM 102.0 °F 104.6 °F 63.0 °F 28% 29.78 in 10.0 mi South 12.7 mph - N/A   Mostly Cloudy
3:53 PM 102.9 °F 104.2 °F 61.0 °F 25% 29.78 in 10.0 mi South 18.4 mph 24.2 mph N/A   Mostly Cloudy
4:53 PM 99.0 °F 99.5 °F 61.0 °F 28% 29.78 in 10.0 mi South 17.3 mph 24.2 mph N/A   Mostly Cloudy
5:53 PM 95.0 °F 95.6 °F 62.1 °F 33% 29.77 in 10.0 mi South 17.3 mph - N/A   Mostly Cloudy
6:53 PM 91.9 °F 91.8 °F 61.0 °F 35% 29.76 in 10.0 mi South 15.0 mph - N/A   Mostly Cloudy
7:53 PM 84.0 °F 83.5 °F 57.9 °F 41% 29.77 in 10.0 mi SSW 16.1 mph - N/A   Mostly Cloudy
8:53 PM 81.0 °F 81.0 °F 57.0 °F 44% 29.79 in 10.0 mi SSE 11.5 mph - N/A   Partly Cloudy
9:53 PM 79.0 °F - 57.0 °F 47% 29.81 in 10.0 mi South 10.4 mph - N/A   Clear
10:53 PM 75.0 °F - 57.9 °F 55% 29.81 in 10.0 mi South 9.2 mph - N/A   Clear
11:53 PM 75.0 °F - 57.0 °F 53% 29.82 in 10.0 mi SSE 11.5 mph - N/A   Clear